Location: Indian Lake Farms
(36.2417°N, 86.5625°W)
Time: 20:13:01
(UTC+00:00)

Daily predictions for brighter satellites

Satellite Brightness Start Highest point End
(mag) Time Altitude Azimuth Time Altitude Azimuth Time Altitude Azimuth
Envisat 3.1 12:00:33 10° N 12:05:33 59° WNW 12:10:32 10° SSW
Cosmos 2219 Rocket 3.6 22:52:03 10° SW 22:57:18 39° WNW 23:02:34 10° N
ADEOS Rocket 4.1 22:49:57 10° N 22:57:35 69° WNW 23:05:15 10° SSW
CZ-4B R/B 3.2 22:55:16 10° SSE 23:00:31 57° ENE 23:05:43 10° N
NOAA 12 4.3 22:55:58 10° SSE 23:01:08 54° ENE 23:06:19 10° N
H-2A R/B 3.8 22:58:00 10° S 23:01:40 51° W 23:05:25 10° NNW
DELTA 2 R/B (1) 3.9 22:57:13 10° WNW 23:02:45 69° SSW 23:08:15 10° ESE
AQUARIUS 4.4 22:58:30 10° SSE 23:02:48 47° ENE 23:07:07 10° N
USA 215 3.4 22:56:21 10° NE 23:02:55 83° NW 23:09:27 10° SW
Aureole 2 Rocket 2.2 23:00:19 10° NNW 23:03:06 73° WSW 23:05:59 10° SSE
Cosmos 2237 Rocket 2.2 22:59:53 10° SSW 23:05:28 76° ESE 23:11:06 10° NNE
H-2A R/B 2.8 23:01:25 10° S 23:05:50 78° WSW 23:10:08 10° NNW
COSMO-SKYMED 1 3.6 23:05:44 10° NE 23:09:22 26° E 23:12:58 10° SSE
Cosmos 1743 Rocket 3.6 23:05:26 10° N 23:09:55 82° E 23:14:21 10° S
Okean O Rocket 1.5 23:09:30 10° SSE 23:13:47 65° ENE 23:18:07 10° N
YAOGAN 6 3.1 23:10:55 10° S 23:14:34 66° W 23:18:12 10° NNW
CRYOSAT 2 4.3 23:11:48 10° N 23:16:42 76° E 23:21:35 10° S
Envisat 3.7 23:12:16 10° S 23:17:16 59° W 23:22:17 10° NNW
Cosmos 405 Rocket 2.7 23:14:05 10° N 23:18:00 86° E 23:21:59 10° S
Sich 1 3.6 23:17:00 10° N 23:21:05 36° E 23:25:04 10° SE
CORIOLIS 4.1 23:16:18 10° SSE 23:21:39 75° ENE 23:27:04 10° N
Cosmos 1980 4.0 23:17:49 10° SSW 23:23:28 71° WNW 23:29:10 10° NNE
H-2A R/B 3.7 23:25:30 13° ENE 23:25:30 13° ENE 23:27:53 10° NE
Helios 1A Rocket 4.4 23:28:32 16° ENE 23:28:47 16° ENE 23:31:16 10° NNE
Cosmos 1805 Rocket 3.5 23:25:44 10° N 23:30:10 66° E 23:34:34 10° SSE
Cosmos 389 Rocket 2.3 23:28:38 10° S 23:32:03 70° E 23:35:27 10° NNE
USA 267 4.1 23:27:58 13° E 23:32:41 30° NNE 23:38:09 10° NNW
Cosmos 1151 Rocket 3.7 23:29:45 10° SSE 23:33:34 31° E 23:37:21 10° NNE
Cosmos 1782 4.3 23:32:49 10° SE 23:35:12 17° E 23:35:12 17° E
Cosmos 1666 Rocket 4.2 23:32:13 10° NNE 23:36:13 33° ENE 23:40:14 10° SE
SMAP 3.6 23:31:55 10° S 23:36:30 61° WSW 23:41:08 10° NNW
Cosmos 1606 2.6 23:32:44 10° S 23:36:38 85° E 23:40:32 10° N
Cosmos 1328 Rocket 4.3 23:33:24 10° SSE 23:37:09 30° E 23:40:17 13° NE
BREEZE-M DEB (TANK) 4.4 23:31:39 10° SW 23:45:40 57° SE 23:48:28 23° ENE
Cosmos 2366 rocket 4.4 23:40:14 10° N 23:45:58 38° ENE 23:51:36 10° SE
BREEZE-M DEB (TANK) 3.9 23:44:32 10° W 23:46:27 17° NW 23:47:24 13° N
SL-16 R/B 2.2 23:47:11 10° S 23:52:46 65° ESE 23:57:37 14° NNE
Lacrosse 5 rocket 1.1 23:51:11 10° SSW 23:54:48 56° SE 23:55:53 38° ENE
Cosmos 1943 Rocket 3.7 23:52:01 10° NNE 23:54:14 16° NE 23:54:14 16° NE
Abrixas rocket 2.5 23:53:34 10° NW 23:55:50 37° N 23:55:50 37° N
